This is the latest recevied weather packets stored in our database for station/object N2ZVN. If no packets are shown the sender has not sent any weather packets the latest 10 day(s).
| Time | Temp. | Humidity | Pressure | Rain* | Wind** | Luminosity | Snow |
|---|---|---|---|---|---|---|---|
| 1777860950 | 11.67° C | 54% | 1009.2 hPa | 0 mm | - | 0 W/m² | - |
| 1777860646 | 11.67° C | 58% | 1009.2 hPa | 0 mm | - | 0 W/m² | - |
| 1777860343 | 10° C | 73% | 1009.2 hPa | 0 mm | - | 0 W/m² | - |
| 1777860040 | 10° C | 73% | 1009.4 hPa | 0 mm | - | 0 W/m² | - |
| 1777859736 | 10° C | 73% | 1009.4 hPa | 0 mm | - | 0 W/m² | - |
| 1777859432 | 9.44° C | 89% | 1009.4 hPa | 0 mm | - | 0 W/m² | - |
| 1777859129 | 9.44° C | 89% | 1009.4 hPa | 0 mm | - | 0 W/m² | - |
| 1777858826 | 9.44° C | 89% | 1009.4 hPa | 0 mm | - | 0 W/m² | - |
| 1777858524 | 9.44° C | 89% | 1009.5 hPa | 0 mm | - | 0 W/m² | - |
| 1777858220 | 9.44° C | 89% | 1009.5 hPa | 0 mm | - | 0 W/m² | - |
| 1777857918 | 9.44° C | 89% | 1009.6 hPa | 0 mm | - | 0 W/m² | - |
| 1777857616 | 9.44° C | 89% | 1009.8 hPa | 0 mm | - | 0 W/m² | - |
| 1777857312 | 9.44° C | 89% | 1009.6 hPa | 0 mm | - | 0 W/m² | - |
| 1777857008 | 8.89° C | 91% | 1009.6 hPa | 0 mm | - | 0 W/m² | - |
| 1777856704 | 8.89° C | 91% | 1009.4 hPa | 0 mm | - | 0 W/m² | - |
| 1777856400 | 8.89° C | 91% | 1009.3 hPa | 0 mm | - | 0 W/m² | - |
| 1777856097 | 8.89° C | 91% | 1009.6 hPa | 0 mm | - | 0 W/m² | - |
| 1777855794 | 8.89° C | 91% | 1009.6 hPa | 0 mm | - | 0 W/m² | - |
| 1777855492 | 8.89° C | 90% | 1009.7 hPa | 0 mm | - | 0 W/m² | - |
| 1777855189 | 9.44° C | 90% | 1009.8 hPa | 0 mm | - | 0 W/m² | - |
| 1777854885 | 9.44° C | 90% | 1009.9 hPa | 0 mm | - | 0 W/m² | - |
| 1777854582 | 9.44° C | 89% | 1009.8 hPa | 0 mm | - | 0 W/m² | - |
| 1777854279 | 9.44° C | 89% | 1009.9 hPa | 0 mm | - | 0 W/m² | - |
| 1777853976 | 9.44° C | 88% | 1009.8 hPa | 0 mm | - | 1 W/m² | - |
| 1777853673 | 9.44° C | 87% | 1009.9 hPa | 0 mm | - | 1 W/m² | - |
* Rain latest hour (hover to see other rain measurements)
** Current wind speed in m/s (hover to see current wind gust speed)